Flag for Germany Weather past 2 weeks in Halle, Saxony-Anhalt, Germany

Now
54 °F

Clear.


Feels Like: 53 °F
Forecast: 48 / 67 °F
Wind: 5 mph from West

Location: Leipzig-Schkeuditz

Current Time: May 23, 2015 at 3:30:54 AM

Latest Report: May 23, 2015 at 2:50 AM


Visibility: 10 mi

Pressure: 30.15 "Hg

Humidity: 67%

Dew point: 43 °F

Location of HalleLocation

Historic Weather in Halle — Graph

°F

Halle temperature yesterday

Maximum temperature yesterday: 66 °F (at 1:50 PM)
Minimum temperature yesterday: 41 °F (at 3:20 AM)
Average temperature yesterday: 55 °F

Past Weeks' High & Low Weather Summary

 TemperatureHumidityPressure
High82 °F (May 12, 3:20 PM)100% (May 15, 5:50 AM)30.36 "Hg (May 15, 5:50 AM)
Low39 °F (May 15, 4:50 AM)25% (May 12, 3:50 PM)29.62 "Hg (May 19, 1:50 AM)
Average56 °F62%30.05 "Hg
* Reported May 8 2:20 AM — May 23 2:20 AM, Halle, Weather by CustomWeather, © 2015

Note: Actual official high and low records may vary slightly from our data, if they occured in-between our weather recording intervals... More about our weather records

Advertising

Halle weather history for previous 24 hours

 ConditionsComfort  
Time TempWeatherWind HumidityBarometerVisibility
2:20 AM
Sat, May 23
54 °FClear.5 mph67%30.15 "Hg10 mi
1:50 AM55 °FClear.7 mph63%30.15 "Hg10 mi
1:20 AM54 °FClear.7 mph67%30.18 "Hg10 mi
12:50 AM54 °FClear.6 mph63%30.18 "Hg10 mi
12:20 AM54 °FClear.6 mph58%30.18 "Hg10 mi
11:50 PM
Fri, May 22
54 °FClear.5 mph58%30.18 "Hg10 mi
11:20 PM54 °FClear.5 mph58%30.18 "Hg10 mi
10:50 PM55 °FClear.3 mph59%30.18 "Hg10 mi
10:20 PM57 °FClear.2 mph55%30.18 "Hg10 mi
9:50 PM57 °FSunny.2 mph55%30.18 "Hg10 mi
9:20 PM59 °FSunny.2 mph51%30.18 "Hg10 mi
8:50 PM63 °FSunny.3 mph42%30.18 "Hg10 mi
8:20 PM63 °FSunny.3 mph45%30.18 "Hg10 mi
7:50 PM64 °FSunny.3 mph37%30.18 "Hg10 mi
7:20 PM64 °FSunny.3 mph37%30.18 "Hg10 mi
6:50 PM64 °FSunny.2 mph37%30.18 "Hg10 mi
6:20 PM66 °FSunny.3 mph35%30.18 "Hg10 mi
5:50 PM66 °FSunny.3 mph35%30.21 "Hg10 mi
5:20 PM66 °FSunny.3 mph37%30.21 "Hg10 mi
4:50 PM64 °FSunny.2 mph37%30.21 "Hg10 mi
4:20 PM64 °FSunny.5 mph37%30.24 "Hg10 mi
3:50 PM64 °FSunny.3 mph37%30.24 "Hg10 mi
3:20 PM64 °FSunny.5 mph37%30.24 "Hg10 mi
2:50 PM66 °FSunny.2 mph35%30.24 "Hg10 mi
2:20 PM66 °FSunny.2 mph35%30.27 "Hg10 mi
1:50 PM66 °FSunny.3 mph32%30.27 "Hg10 mi
1:20 PM64 °FPassing clouds.5 mph37%30.27 "HgN/A
12:50 PM63 °FSunny.3 mph39%30.30 "Hg10 mi
12:20 PM63 °FSunny.6 mph37%30.30 "Hg10 mi
11:50 AM63 °FSunny.2 mph39%30.30 "Hg10 mi
11:20 AM61 °FPassing clouds.5 mph39%30.30 "HgN/A
10:50 AM59 °FSunny.6 mph42%30.33 "Hg10 mi
10:20 AM59 °FSunny.6 mph48%30.33 "Hg10 mi
9:50 AM57 °FSunny.6 mph55%30.33 "Hg10 mi
9:20 AM55 °FSunny.6 mph63%30.33 "Hg10 mi
8:50 AM54 °FSunny.6 mph67%30.33 "Hg10 mi
8:20 AM52 °FSunny.5 mph72%30.33 "Hg10 mi
7:50 AM50 °FSunny.6 mph71%30.33 "Hg10 mi
7:20 AM46 °FSunny.5 mph82%30.33 "Hg10 mi
6:50 AM45 °FSunny.6 mph87%30.33 "Hg10 mi
6:20 AM45 °FSunny.7 mph87%30.30 "Hg10 mi
5:50 AM43 °FClear.7 mph87%30.30 "Hg10 mi
5:20 AM41 °FClear.6 mph87%30.30 "Hg10 mi
4:50 AM43 °FClear.6 mph87%30.33 "Hg10 mi
4:20 AM43 °FClear.6 mph87%30.30 "Hg10 mi
3:50 AM41 °FClear.7 mph87%30.30 "Hg10 mi
3:20 AM41 °FClear.5 mph87%30.30 "Hg10 mi
Weather by CustomWeather, © 2015

See weather overviewHow to use our weather pages